User: anonymous   Login
Location: Unspecified
(0.0000°N, 0.0000°E)
Time: 00:18:36
(UTC+01:00)
Language:

Centaur D-1AR AC-41 - Orbit

View from above orbital plane
View from above orbital plane
View from above satellite
View from above satellite

Ground track
Ground track

The orbit data is extracted from the following two-line orbital elements,

1 10976U 78068B   17024.66599003  .00000053  00000-0  74119-3 0  9997
2 10976  21.5467 252.9258 7168226 169.2654 107.9194  2.22306135313066
Epoch (UTC): 24 January 2017 15:59:01
Eccentricity: 0.7168226
inclination: 21.5467°
perigee height: 644 km
apogee height: 36197 km
right ascension of ascending node: 252.9258°
argument of perigee: 169.2654°
revolutions per day: 2.22306135
mean anomaly at epoch: 107.9194°
orbit number at epoch: 31306

The dashed part of the orbit path shows where the satellite is in the earth's shadow,  

DLR